Location: Helsinki
(60.1699°N, 24.9384°E)
Time: 00:01:08
(UTC+02:00)

Altair - Pass Details

Date: 31 October 2020
Orbit: 1502 x 1682 km, 47.2° (Epoch: 25 November)

Event Time Altitude Azimuth Distance (km) Brightness Sun altitude
Rises 06:43:12 0° 240° (WSW) 4,665 9.6 -7.5°
Reaches altitude 10° 06:46:28 10° 233° (SW) 3,702 9.2 -7.1°
Maximum altitude 06:54:43 37° 171° (S) 2,271 8.7 -6.2°
Drops below altitude 10° 07:03:14 10° 109° (ESE) 3,827 11.5 -5.2°
Sets 07:06:41 0° 101° (ESE) 4,839 12.5 -4.8°
